Moncks Corner, SC

7:26 PM EDT on June 23, 2017 (GMT -0400)
Moncks Corner

Weather History for KMKS - December, 2012

Change the Weather History Date:

Tuesday, December 11, 2012

  Actual Average (KCHS) Record (KCHS)
Temperature  
Mean Temperature 64 °F -  
Max Temperature 69 °F 62 °F 83 °F (1972)
Min Temperature 60 °F 42 °F 18 °F (1981)
Growing Degree Days 14 (Base 50)    
Moisture  
Dew Point 60 °F    
Average Humidity 86    
Maximum Humidity 94    
Minimum Humidity 73    
Precipitation  
Precipitation 0.00 in - - ()
Sea Level Pressure  
Sea Level Pressure 29.94 in    
Wind  
Wind Speed 4 mph (WSW)    
Max Wind Speed 8 mph    
Max Gust Speed -    
Visibility 8 miles    
Events Rain    
Averages and records for this station are not official NWS values.
T = Trace of Precipitation, MM = Missing Value Source: NWS Daily Summary

Daily Weather History Graph

Daily Weather History Graph

Search for Another Location

Airport or City:

Trip Planner

Search our weather history database for the weather conditions in past years. The results will help you decide how hot, cold, wet, or windy it might be!

Date:

Astronomy

Dec. 11, 2012 Rise Set
Actual Time 7:13 AM EST 5:13 PM EST
Civil Twilight 6:46 AM EST 5:40 PM EST
Nautical Twilight 6:15 AM EST 6:11 PM EST
Astronomical Twilight 5:45 AM EST 6:42 PM EST
Moon 5:09 AM EST (12/11) 3:49 PM EST (12/11)
Length of Visible Light 10h 54m
Length of Day
9h 59m
Waning Crescent, 4% of the Moon is Illuminated
Dec 11
Waning Crescent
Dec 13
New
Dec 20
First Quarter
Dec 28
Full
Jan 4
Last Quarter

Hourly Weather History & Observations

Time (EST) Temp. Dew Point Humidity Pressure Visibility Wind Dir Wind Speed Gust Speed Precip Events Conditions
12:15 AM 66.2 °F 64.4 °F 94% 29.79 in 7.0 mi SSW 8.1 mph - N/A   Unknown
12:35 AM 66.2 °F 64.4 °F 94% 29.79 in 7.0 mi SSW 8.1 mph - N/A   Unknown
12:55 AM 66.2 °F 64.4 °F 94% 29.79 in 10.0 mi SSW 5.8 mph - N/A   Unknown
1:15 AM 66.2 °F 64.4 °F 94% 29.80 in 7.0 mi SSW 8.1 mph - N/A   Unknown
1:35 AM 66.2 °F 62.6 °F 88% 29.80 in 10.0 mi SSW 6.9 mph - N/A   Unknown
1:55 AM 66.2 °F 62.6 °F 88% 29.80 in 7.0 mi SW 4.6 mph - N/A   Unknown
2:15 AM 66.2 °F 62.6 °F 88% 29.81 in 10.0 mi SW 4.6 mph - N/A   Unknown
2:35 AM 66.2 °F 62.6 °F 88% 29.81 in 10.0 mi SW 4.6 mph - N/A   Unknown
2:55 AM 66.2 °F 62.6 °F 88% 29.82 in 10.0 mi SW 5.8 mph - N/A   Unknown
3:15 AM 66.2 °F 62.6 °F 88% 29.82 in 7.0 mi SSW 4.6 mph - N/A   Unknown
3:35 AM 66.2 °F 62.6 °F 88% 29.82 in 10.0 mi SSW 3.5 mph - N/A   Unknown
3:55 AM 66.2 °F 62.6 °F 88% 29.82 in 7.0 mi Calm Calm - N/A   Unknown
4:15 AM 66.2 °F 62.6 °F 88% 29.82 in 7.0 mi SW 3.5 mph - N/A   Unknown
4:35 AM 66.2 °F 62.6 °F 88% 29.83 in 7.0 mi SW 4.6 mph - N/A   Unknown
4:55 AM 66.2 °F 62.6 °F 88% 29.83 in 5.0 mi SW 4.6 mph - N/A   Mist
5:15 AM 66.2 °F 62.6 °F 88% 29.83 in 7.0 mi SW 4.6 mph - N/A   Unknown
5:35 AM 66.2 °F 62.6 °F 88% 29.85 in 10.0 mi WSW 3.5 mph - N/A   Unknown
5:55 AM 64.4 °F 62.6 °F 94% 29.86 in 7.0 mi Calm Calm - N/A   Unknown
6:15 AM 66.2 °F 62.6 °F 88% 29.86 in 7.0 mi Calm Calm - N/A   Unknown
6:35 AM 66.2 °F 62.6 °F 88% 29.87 in 5.0 mi WSW 4.6 mph - N/A   Mist
6:55 AM 64.4 °F 62.6 °F 94% 29.88 in 7.0 mi WSW 3.5 mph - N/A   Unknown
7:15 AM 64.4 °F 62.6 °F 94% 29.90 in 5.0 mi Calm Calm - N/A   Mist
7:35 AM 64.4 °F 62.6 °F 94% 29.90 in 5.0 mi Calm Calm - N/A   Mist
7:55 AM 64.4 °F 62.6 °F 94% 29.93 in 5.0 mi Calm Calm - N/A   Mist
8:15 AM 64.4 °F 62.6 °F 94% 29.93 in 7.0 mi WNW 3.5 mph - N/A   Unknown
8:35 AM 64.4 °F 60.8 °F 88% 29.93 in 7.0 mi Calm Calm - N/A   Unknown
8:55 AM 64.4 °F 60.8 °F 88% 29.95 in 7.0 mi Calm Calm - N/A   Unknown
9:15 AM 66.2 °F 60.8 °F 83% 29.95 in 7.0 mi Calm Calm - N/A   Unknown
9:35 AM 66.2 °F 60.8 °F 83% 29.96 in 7.0 mi Calm Calm - N/A   Unknown
9:55 AM 66.2 °F 60.8 °F 83% 29.96 in 7.0 mi SW 3.5 mph - N/A   Unknown
10:15 AM 68.0 °F 60.8 °F 78% 29.96 in 7.0 mi Calm Calm - N/A   Unknown
10:35 AM 68.0 °F 60.8 °F 78% 29.97 in 10.0 mi Calm Calm - N/A   Unknown
10:55 AM 68.0 °F 60.8 °F 78% 29.97 in 7.0 mi Calm Calm - N/A   Unknown
11:15 AM 68.0 °F 60.8 °F 78% 29.96 in 7.0 mi WSW 3.5 mph - N/A   Unknown
11:35 AM 68.0 °F 60.8 °F 78% 29.97 in 10.0 mi WSW 3.5 mph - N/A   Unknown
11:55 AM 68.0 °F 60.8 °F 78% 29.97 in 7.0 mi SW 4.6 mph - N/A   Unknown
12:15 PM 68.0 °F 59.0 °F 73% 29.96 in 10.0 mi Calm Calm - N/A   Unknown
12:35 PM 69.8 °F 60.8 °F 73% 29.96 in 10.0 mi Calm Calm - N/A   Unknown
12:55 PM 68.0 °F 59.0 °F 73% 29.95 in 10.0 mi Calm Calm - N/A   Unknown
1:15 PM 68.0 °F 59.0 °F 73% 29.96 in 10.0 mi Calm Calm - N/A   Unknown
1:35 PM 68.0 °F 59.0 °F 73% 29.95 in 10.0 mi North 6.9 mph - N/A   Unknown
1:55 PM 66.2 °F 59.0 °F 78% 29.95 in 7.0 mi NNW 4.6 mph - N/A   Unknown
2:15 PM 66.2 °F 57.2 °F 73% 29.95 in 7.0 mi North 6.9 mph - N/A   Unknown
2:35 PM 66.2 °F 57.2 °F 73% 29.96 in 7.0 mi North 4.6 mph - N/A   Unknown
2:55 PM 64.4 °F 57.2 °F 77% 29.97 in 7.0 mi NNW 3.5 mph - N/A   Unknown
3:15 PM 64.4 °F 57.2 °F 77% 29.97 in 7.0 mi North 3.5 mph - N/A   Unknown
3:35 PM 64.4 °F 57.2 °F 77% 29.97 in 5.0 mi North 3.5 mph - N/A   Haze
3:55 PM 64.4 °F 57.2 °F 77% 29.98 in 5.0 mi NNW 3.5 mph - N/A   Haze
4:15 PM 64.4 °F 57.2 °F 77% 29.99 in 10.0 mi Calm Calm - N/A   Unknown
4:35 PM 64.4 °F 57.2 °F 77% 29.99 in 10.0 mi Calm Calm - N/A   Unknown
4:55 PM 62.6 °F 57.2 °F 82% 29.99 in 10.0 mi Calm Calm - N/A   Light Drizzle
5:15 PM 62.6 °F 59.0 °F 88% 30.00 in 10.0 mi Calm Calm - N/A   Unknown
5:55 PM 62.6 °F 59.0 °F 88% 30.00 in 10.0 mi Calm Calm - N/A   Light Drizzle
6:15 PM 60.8 °F 59.0 °F 94% 29.99 in 7.0 mi Calm Calm - N/A Rain Light Rain
6:35 PM 60.8 °F 59.0 °F 94% 30.00 in 4.0 mi Calm Calm - N/A   Mist
6:55 PM 60.8 °F 59.0 °F 94% 30.00 in 5.0 mi Calm Calm - N/A   Mist
7:15 PM 60.8 °F 59.0 °F 94% 30.01 in 5.0 mi Calm Calm - N/A Rain Light Rain
7:35 PM 60.8 °F 59.0 °F 94% 30.02 in 5.0 mi Calm Calm - N/A Rain Light Rain
7:55 PM 60.8 °F 59.0 °F 94% 30.03 in 5.0 mi Calm Calm - N/A   Light Drizzle
8:15 PM 62.6 °F 59.0 °F 88% 30.03 in 7.0 mi Calm Calm - N/A   Light Drizzle
8:55 PM 62.6 °F 57.2 °F 82% 30.05 in 7.0 mi Calm Calm - N/A   Unknown
9:15 PM 60.8 °F 57.2 °F 88% 30.05 in 10.0 mi Calm Calm - N/A   Unknown
9:35 PM 60.8 °F 57.2 °F 88% 30.06 in 7.0 mi Calm Calm - N/A   Unknown
9:55 PM 60.8 °F 57.2 °F 88% 30.07 in 7.0 mi Calm Calm - N/A   Unknown
10:15 PM 60.8 °F 57.2 °F 88% 30.08 in 5.0 mi Calm Calm - N/A   Light Drizzle
10:35 PM 60.8 °F 57.2 °F 88% 30.06 in 7.0 mi Calm Calm - N/A   Unknown
10:55 PM 60.8 °F 59.0 °F 94% 30.07 in 7.0 mi Calm Calm - N/A   Unknown
11:15 PM 60.8 °F 57.2 °F 88% 30.07 in 7.0 mi Calm Calm - N/A   Unknown
11:35 PM 60.8 °F 59.0 °F 94% 30.05 in 7.0 mi ESE 3.5 mph - N/A   Unknown
11:55 PM 60.8 °F 57.2 °F 88% 30.06 in 7.0 mi Calm Calm - N/A   Unknown